Yreka, CA

8:52 AM PDT on September 28, 2016 (GMT -0700)
Siskiyou County

Weather History for KSIY - May, 2013

Change the Weather History Date:

Saturday, May 25, 2013

  Actual Average Record
Temperature  
Mean Temperature 54 °F 58 °F  
Max Temperature 75 °F 74 °F 95 °F (1983)
Min Temperature 33 °F 42 °F 32 °F (1989)
Degree Days  
Heating Degree Days 11 8  
Month to date heating degree days 176 249  
Since 1 July heating degree days 4981 5347  
Cooling Degree Days 0 1  
Month to date cooling degree days 12 10  
Year to date cooling degree days 12 10  
Growing Degree Days 2 (Base 50)    
Moisture  
Dew Point 34 °F    
Average Humidity 51    
Maximum Humidity 82    
Minimum Humidity 20    
Precipitation  
Precipitation T in 0.02 in 0.51 in (2011)
Month to date precipitation 0.74 1.29  
Year to date precipitation 3.30 9.37  
Sea Level Pressure  
Sea Level Pressure 30.01 in    
Wind  
Wind Speed 4 mph (NNW)    
Max Wind Speed 20 mph    
Max Gust Speed -    
Visibility 10 miles    
Events Rain    
T = Trace of Precipitation, MM = Missing Value Source: NWS Daily Summary

Daily Weather History Graph

Daily Weather History Graph

Search for Another Location

Airport or City:

Trip Planner

Search our weather history database for the weather conditions in past years. The results will help you decide how hot, cold, wet, or windy it might be!

Date:

Astronomy

May. 25, 2013 Rise Set
Actual Time 5:41 AM PDT 8:32 PM PDT
Civil Twilight 5:08 AM PDT 9:05 PM PDT
Nautical Twilight 4:27 AM PDT 9:47 PM PDT
Astronomical Twilight 3:39 AM PDT 10:35 PM PDT
Moon 9:26 PM PDT (5/25) 6:13 AM PDT (5/25)
Length of Visible Light 15h 57m
Length of Day
14h 51m
Waxing Gibbous, 99% of the Moon is Illuminated
May 25
Waxing Gibbous
May 31
Last Quarter
Jun 8
New
Jun 16
First Quarter
Jun 23
Full

Hourly Weather History & Observations

Time (PDT) Temp. Windchill Dew Point Humidity Pressure Visibility Wind Dir Wind Speed Gust Speed Precip Events Conditions
12:53 AM 46.9 °F - 35.1 °F 63% 30.05 in 10.0 mi Variable 6.9 mph - N/A   Clear
1:53 AM 45.0 °F 40.1 °F 34.0 °F 65% 30.05 in 10.0 mi North 9.2 mph - N/A   Clear
2:53 AM 39.9 °F - 33.1 °F 77% 30.05 in 10.0 mi Calm Calm - N/A   Clear
3:53 AM 37.9 °F 33.5 °F 32.0 °F 79% 30.06 in 10.0 mi NE 5.8 mph - N/A   Clear
4:53 AM 37.0 °F 32.4 °F 30.9 °F 79% 30.07 in 10.0 mi ENE 5.8 mph - N/A   Clear
5:53 AM 33.1 °F - 28.9 °F 85% 30.09 in 10.0 mi Calm Calm - N/A   Clear
6:53 AM 39.0 °F - 33.1 °F 79% 30.10 in 10.0 mi Calm Calm - N/A   Clear
7:53 AM 46.9 °F - 35.1 °F 63% 30.09 in 10.0 mi NNE 4.6 mph - N/A   Clear
8:53 AM 50.0 °F - 36.0 °F 59% 30.08 in 10.0 mi Calm Calm - N/A   Clear
9:53 AM 52.0 °F - 35.1 °F 53% 30.07 in 10.0 mi Calm Calm - N/A   Clear
10:53 AM 57.0 °F - 36.0 °F 45% 30.04 in 10.0 mi WSW 3.5 mph - N/A   Clear
11:53 AM 62.1 °F - 32.0 °F 32% 30.02 in 10.0 mi Variable 3.5 mph - N/A   Clear
12:53 PM 64.9 °F - 30.0 °F 27% 30.00 in 10.0 mi Calm Calm - N/A   Clear
1:53 PM 69.1 °F - 28.0 °F 22% 29.98 in 10.0 mi NNE 4.6 mph - N/A   Clear
2:53 PM 71.1 °F - 28.0 °F 20% 29.96 in 10.0 mi Calm Calm - N/A   Clear
3:53 PM 72.0 °F - 30.0 °F 21% 29.94 in 10.0 mi WSW 6.9 mph - N/A   Clear
4:53 PM 71.1 °F - 30.0 °F 22% 29.92 in 10.0 mi South 5.8 mph - N/A   Clear
5:53 PM 70.0 °F - 35.1 °F 28% 29.93 in 10.0 mi NW 8.1 mph - N/A   Mostly Cloudy
6:53 PM 66.0 °F - 36.0 °F 33% 29.94 in 10.0 mi NNW 6.9 mph - N/A   Overcast
7:53 PM 63.0 °F - 37.9 °F 40% 29.96 in 10.0 mi WNW 9.2 mph - 0.00 in   Overcast
8:53 PM 57.9 °F - 44.1 °F 60% 29.97 in 10.0 mi ENE 5.8 mph - 0.00 in   Overcast
9:53 PM 57.0 °F - 44.1 °F 62% 29.99 in 10.0 mi NNW 4.6 mph - 0.00 in Rain Light Rain
10:53 PM 55.9 °F - 36.0 °F 47% 29.99 in 10.0 mi WNW 4.6 mph - 0.00 in   Overcast
11:53 PM 54.0 °F - 37.0 °F 53% 30.00 in 10.0 mi Calm Calm - N/A   Mostly Cloudy